• In Österreich
  • Länderverzeichnis
  • Für 7 Tage
  • Wassertemperatur
  • Satellitenkarten
  • Wetterkarte
  • News
  • Widgets
  • user-avatar
    Anmelden

    Stündliche Wetter Neuquén

    Heute, 25 September, Dienstag

    Zeit Temperatur Niederschläge Wind Luftdruck Luftfeuchtigkeit
    00:00 +14°C° 0 mm 3 m/S 733 mmHg 35%
    01:00 +13°C° 0 mm 4 m/S 733 mmHg 36%
    02:00 +12°C° 0 mm 4 m/S 733 mmHg 36%
    03:00 +12°C° 0 mm 4 m/S 733 mmHg 36%
    04:00 +11°C° 0 mm 4 m/S 733 mmHg 36%
    05:00 +12°C° 0 mm 4 m/S 733 mmHg 36%
    06:00 +12°C° 0 mm 4 m/S 734 mmHg 35%
    07:00 +12°C° 0 mm 4 m/S 734 mmHg 36%
    08:00 +14°C° 0 mm 4 m/S 734 mmHg 33%
    09:00 +16°C° 0 mm 3 m/S 734 mmHg 30%
    10:00 +17°C° 0 mm 3 m/S 734 mmHg 27%
    11:00 +18°C° 0 mm 3 m/S 733 mmHg 25%
    12:00 +19°C° 0 mm 4 m/S 733 mmHg 23%
    13:00 +20°C° 0 mm 4 m/S 733 mmHg 20%
    14:00 +20°C° 0 mm 4 m/S 732 mmHg 19%
    15:00 +20°C° 0 mm 4 m/S 732 mmHg 18%
    16:00 +21°C° 0 mm 4 m/S 732 mmHg 17%
    17:00 +20°C° 0 mm 4 m/S 732 mmHg 20%
    18:00 +19°C° 0 mm 4 m/S 733 mmHg 22%
    19:00 +16°C° 0 mm 5 m/S 733 mmHg 25%
    20:00 +17°C° 0 mm 4 m/S 734 mmHg 27%
    21:00 +15°C° 0 mm 4 m/S 734 mmHg 29%
    22:00 +14°C° 0 mm 3 m/S 735 mmHg 31%
    23:00 +14°C° 0 mm 3 m/S 735 mmHg 32%

    Morgen, 26 September, Mittwoch

    Zeit Temperatur Niederschläge Wind Luftdruck Luftfeuchtigkeit
    00:00 +13°C° 0 mm 3 m/S 735 mmHg 33%
    01:00 +13°C° 0 mm 3 m/S 735 mmHg 33%
    02:00 +13°C° 0 mm 3 m/S 735 mmHg 34%
    03:00 +12°C° 0 mm 4 m/S 736 mmHg 34%
    04:00 +12°C° 0 mm 4 m/S 736 mmHg 34%
    05:00 +12°C° 0.3 mm 5 m/S 736 mmHg 37%
    06:00 +10°C° 0.3 mm 6 m/S 737 mmHg 39%
    07:00 +10°C° 0.3 mm 7 m/S 737 mmHg 42%
    08:00 +10°C° 0.4 mm 7 m/S 738 mmHg 46%
    09:00 +9°C° 0.4 mm 8 m/S 738 mmHg 49%
    10:00 +9°C° 0.4 mm 8 m/S 739 mmHg 53%
    11:00 +9°C° 0.3 mm 8 m/S 738 mmHg 56%
    12:00 +9°C° 0.3 mm 8 m/S 738 mmHg 59%
    13:00 +9°C° 0.3 mm 7 m/S 738 mmHg 62%
    14:00 +9°C° 0.1 mm 7 m/S 737 mmHg 63%
    15:00 +9°C° 0.1 mm 7 m/S 737 mmHg 64%
    16:00 +9°C° 0.1 mm 8 m/S 737 mmHg 66%
    17:00 +7°C° 0.5 mm 8 m/S 737 mmHg 69%
    18:00 +7°C° 0.5 mm 8 m/S 737 mmHg 73%
    19:00 +6°C° 0.5 mm 8 m/S 737 mmHg 76%
    20:00 +6°C° 1.6 mm 7 m/S 737 mmHg 79%
    21:00 +6°C° 1.6 mm 7 m/S 737 mmHg 81%
    22:00 +7°C° 1.6 mm 6 m/S 737 mmHg 84%
    23:00 +7°C° 1.1 mm 6 m/S 736 mmHg 85%

    übermorgen, 27 September, Donnerstag

    Zeit Temperatur Niederschläge Wind Luftdruck Luftfeuchtigkeit
    00:00 +7°C° 1.1 mm 6 m/S 736 mmHg 85%
    01:00 +7°C° 1.1 mm 6 m/S 735 mmHg 86%
    02:00 +7°C° 1.2 mm 6 m/S 735 mmHg 87%
    03:00 +5°C° 1.2 mm 6 m/S 734 mmHg 88%
    04:00 +5°C° 1.2 mm 7 m/S 734 mmHg 89%
    05:00 +5°C° 0.6 mm 6 m/S 734 mmHg 88%
    06:00 +7°C° 0.6 mm 6 m/S 734 mmHg 88%
    07:00 +7°C° 0.6 mm 6 m/S 734 mmHg 88%
    08:00 +7°C° 0.4 mm 6 m/S 734 mmHg 86%
    09:00 +8°C° 0.4 mm 5 m/S 734 mmHg 84%
    10:00 +8°C° 0.4 mm 5 m/S 734 mmHg 83%
    11:00 +9°C° 0.5 mm 5 m/S 733 mmHg 82%
    12:00 +9°C° 0.5 mm 5 m/S 733 mmHg 81%
    13:00 +10°C° 0.5 mm 5 m/S 732 mmHg 81%
    14:00 +10°C° 0.5 mm 5 m/S 732 mmHg 82%
    15:00 +10°C° 0.5 mm 5 m/S 731 mmHg 83%
    16:00 +10°C° 0.5 mm 5 m/S 731 mmHg 84%
    17:00 +10°C° 0.4 mm 6 m/S 731 mmHg 85%
    18:00 +10°C° 0.4 mm 6 m/S 731 mmHg 87%
    19:00 +10°C° 0.4 mm 7 m/S 731 mmHg 88%
    20:00 +10°C° 1.4 mm 6 m/S 731 mmHg 89%
    21:00 +10°C° 1.4 mm 6 m/S 730 mmHg 89%
    22:00 +10°C° 1.4 mm 6 m/S 730 mmHg 90%
    23:00 +10°C° 0.6 mm 5 m/S 730 mmHg 90%

    28 September, Freitag

    Zeit Temperatur Niederschläge Wind Luftdruck Luftfeuchtigkeit
    00:00 +11°C° 0.6 mm 4 m/S 729 mmHg 91%
    01:00 +11°C° 0.6 mm 4 m/S 728 mmHg 91%
    02:00 +11°C° 0.2 mm 4 m/S 728 mmHg 91%
    03:00 +11°C° 0.2 mm 3 m/S 728 mmHg 92%
    04:00 +11°C° 0.2 mm 3 m/S 728 mmHg 92%
    05:00 +12°C° 0 mm 3 m/S 728 mmHg 88%
    06:00 +12°C° 0 mm 3 m/S 728 mmHg 84%
    07:00 +13°C° 0 mm 3 m/S 728 mmHg 80%
    08:00 +15°C° 0 mm 6 m/S 728 mmHg 65%
    09:00 +17°C° 0 mm 8 m/S 728 mmHg 50%
    10:00 +19°C° 0 mm 10 m/S 727 mmHg 35%
    11:00 +21°C° 0 mm 11 m/S 727 mmHg 31%
    12:00 +22°C° 0 mm 11 m/S 727 mmHg 28%
    13:00 +23°C° 0 mm 11 m/S 726 mmHg 25%
    14:00 +23°C° 0 mm 10 m/S 726 mmHg 26%
    15:00 +22°C° 0 mm 9 m/S 726 mmHg 27%
    16:00 +22°C° 0 mm 8 m/S 726 mmHg 28%
    17:00 +21°C° 0 mm 6 m/S 726 mmHg 32%
    18:00 +20°C° 0 mm 5 m/S 726 mmHg 36%
    19:00 +19°C° 0 mm 3 m/S 727 mmHg 41%
    20:00 +18°C° 0 mm 2 m/S 726 mmHg 45%
    21:00 +17°C° 0 mm 2 m/S 726 mmHg 49%
    22:00 +16°C° 0 mm 1 m/S 726 mmHg 53%
    23:00 +16°C° 0.1 mm 2 m/S 725 mmHg 54%

    29 September, Samstag

    Zeit Temperatur Niederschläge Wind Luftdruck Luftfeuchtigkeit
    00:00 +14°C° 0.1 mm 3 m/S 724 mmHg 56%
    01:00 +14°C° 0.1 mm 3 m/S 724 mmHg 57%
    02:00 +14°C° 0.3 mm 3 m/S 723 mmHg 62%
    03:00 +13°C° 0.3 mm 3 m/S 722 mmHg 67%
    04:00 +13°C° 0.3 mm 3 m/S 721 mmHg 72%
    05:00 +13°C° 0.3 mm 4 m/S 721 mmHg 72%
    06:00 +13°C° 0.3 mm 5 m/S 721 mmHg 73%
    07:00 +13°C° 0.3 mm 6 m/S 720 mmHg 74%
    08:00 +14°C° 0 mm 7 m/S 720 mmHg 67%
    09:00 +15°C° 0 mm 8 m/S 720 mmHg 61%
    10:00 +16°C° 0 mm 9 m/S 720 mmHg 54%
    11:00 +18°C° 0 mm 11 m/S 720 mmHg 45%
    12:00 +19°C° 0 mm 14 m/S 720 mmHg 35%
    13:00 +20°C° 0 mm 17 m/S 720 mmHg 26%
    14:00 +20°C° 0 mm 17 m/S 721 mmHg 26%
    15:00 +19°C° 0 mm 16 m/S 721 mmHg 26%
    16:00 +18°C° 0 mm 16 m/S 721 mmHg 26%
    17:00 +17°C° 0 mm 15 m/S 722 mmHg 29%
    18:00 +14°C° 0 mm 15 m/S 723 mmHg 32%
    19:00 +12°C° 0 mm 14 m/S 724 mmHg 35%
    20:00 +10°C° 0 mm 14 m/S 725 mmHg 37%
    21:00 +9°C° 0 mm 14 m/S 725 mmHg 40%
    22:00 +8°C° 0 mm 14 m/S 726 mmHg 42%
    23:00 +6°C° 0 mm 14 m/S 727 mmHg 40%

    30 September, Sonntag

    Zeit Temperatur Niederschläge Wind Luftdruck Luftfeuchtigkeit
    00:00 +5°C° 0 mm 14 m/S 728 mmHg 38%
    01:00 +4°C° 0 mm 14 m/S 729 mmHg 36%
    02:00 +4°C° 0 mm 13 m/S 729 mmHg 38%
    03:00 +3°C° 0 mm 11 m/S 730 mmHg 39%
    04:00 +3°C° 0 mm 10 m/S 730 mmHg 41%
    05:00 +3°C° 0 mm 10 m/S 731 mmHg 40%
    06:00 +4°C° 0 mm 11 m/S 731 mmHg 38%
    07:00 +4°C° 0 mm 11 m/S 731 mmHg 37%
    08:00 +7°C° 0 mm 11 m/S 732 mmHg 33%
    09:00 +8°C° 0 mm 11 m/S 732 mmHg 29%
    10:00 +9°C° 0 mm 11 m/S 732 mmHg 25%
    11:00 +11°C° 0 mm 11 m/S 732 mmHg 24%
    12:00 +11°C° 0 mm 11 m/S 732 mmHg 24%
    13:00 +12°C° 0 mm 11 m/S 732 mmHg 23%
    14:00 +11°C° 0 mm 11 m/S 732 mmHg 25%
    15:00 +11°C° 0 mm 10 m/S 732 mmHg 28%
    16:00 +9°C° 0 mm 10 m/S 732 mmHg 30%
    17:00 +8°C° 0 mm 9 m/S 733 mmHg 31%
    18:00 +7°C° 0 mm 8 m/S 734 mmHg 33%
    19:00 +6°C° 0 mm 7 m/S 735 mmHg 34%
    20:00 +7°C° 0 mm 6 m/S 736 mmHg 35%
    21:00 +7°C° 0 mm 5 m/S 736 mmHg 36%
    22:00 +6°C° 0 mm 5 m/S 737 mmHg 36%
    23:00 +6°C° 0 mm 5 m/S 737 mmHg 37%
    Mehr zeigen